Weather History for Rome, NY

Change the Weather History Date:

Thursday, July 26, 2012

  Actual Average Record
Temperature  
Mean Temperature 74 °F -  
Max Temperature 86 °F 81 °F 89 °F (1989)
Min Temperature 64 °F 61 °F 48 °F (1984)
Cooling Degree Days 9    
Growing Degree Days 24 (Base 50)    
Moisture  
Dew Point 66 °F    
Average Humidity 81    
Maximum Humidity 96    
Minimum Humidity 59    
Precipitation  
Precipitation 0.00 in - - ()
Sea Level Pressure  
Sea Level Pressure 29.65 in    
Wind  
Wind Speed 6 mph (West)    
Max Wind Speed 12 mph    
Max Gust Speed 21 mph    
Visibility 9 miles    
Events Rain , Thunderstorm    
Averages and records for this station are not official NWS values.
T = Trace of Precipitation, MM = Missing Value Source: NWS Daily Summary

Daily Weather History Graph

Daily Weather History Graph

Search for Another Location

Airport:

Trip Planner

Search our weather history database for the weather conditions in past years. The results will help you decide how hot, cold, wet, or windy it might be!

Date:

Astronomy

Jul. 26, 2012 Rise Set
Actual Time 5:46 AM EDT 8:29 PM EDT
Civil Twilight 5:13 AM EDT 9:02 PM EDT
Nautical Twilight 4:31 AM EDT 9:43 PM EDT
Astronomical Twilight 3:43 AM EDT 10:31 PM EDT
Moon 2:13 PM EDT (7/26) No Moon Set
Length of Visible Light 15h 49m
Length of Day
14h 43m
First Quarter, 53% of the Moon is Illuminated
Jul 26
First Quarter
Aug 1
Full
Aug 9
Last Quarter
Aug 17
New
Aug 24
First Quarter

Hourly Weather History & Observations

Time (EDT) Temp. Heat Index Dew Point Humidity Pressure Visibility Wind Dir Wind Speed Gust Speed Precip Events Conditions
12:53 AM 68.0 °F - 55.9 °F 65% 29.75 in 10.0 mi East 5.8 mph - N/A   Overcast
1:53 AM 68.0 °F - 57.0 °F 68% 29.73 in 10.0 mi ESE 5.8 mph - N/A   Overcast
2:53 AM 68.0 °F - 57.9 °F 70% 29.72 in 10.0 mi SE 3.5 mph - N/A   Overcast
3:53 AM 68.0 °F - 57.9 °F 70% 29.69 in 10.0 mi SE 4.6 mph - N/A   Overcast
4:53 AM 66.0 °F - 60.1 °F 81% 29.70 in 8.0 mi Calm Calm - N/A Rain Rain
5:15 AM 66.0 °F - 62.1 °F 87% 29.72 in 5.0 mi Calm Calm - N/A Rain , Thunderstorm Rain
5:53 AM 64.0 °F - 62.1 °F 93% 29.67 in 7.0 mi East 4.6 mph - N/A Rain Light Rain
6:21 AM 64.0 °F - 62.1 °F 93% 29.66 in 10.0 mi ESE 9.2 mph - N/A Rain Light Rain
6:38 AM 64.0 °F - 62.1 °F 93% 29.66 in 10.0 mi East 8.1 mph - N/A Rain Light Rain
6:53 AM 64.0 °F - 63.0 °F 96% 29.64 in 10.0 mi East 6.9 mph - N/A   Overcast
7:53 AM 66.0 °F - 63.0 °F 90% 29.65 in 10.0 mi East 9.2 mph - N/A   Scattered Clouds
8:53 AM 68.0 °F - 64.0 °F 87% 29.67 in 10.0 mi East 3.5 mph - N/A   Scattered Clouds
9:53 AM 70.0 °F - 64.9 °F 84% 29.65 in 10.0 mi East 4.6 mph - N/A   Overcast
10:53 AM 73.0 °F - 66.0 °F 79% 29.65 in 10.0 mi Calm Calm - N/A   Overcast
11:53 AM 75.9 °F - 66.0 °F 71% 29.63 in 10.0 mi Variable 4.6 mph - N/A   Scattered Clouds
12:04 PM 75.9 °F - 66.9 °F 74% 29.65 in 10.0 mi WSW 5.8 mph - N/A   Mostly Cloudy
12:19 PM 75.9 °F - 66.9 °F 74% 29.64 in 10.0 mi WSW 4.6 mph - N/A   Mostly Cloudy
12:53 PM 80.1 °F 82.9 °F 69.1 °F 69% 29.62 in 10.0 mi NW 6.9 mph - N/A   Scattered Clouds
1:41 PM 82.0 °F 85.5 °F 69.1 °F 65% 29.62 in 10.0 mi West 9.2 mph - N/A   Mostly Cloudy
1:53 PM 82.9 °F 85.8 °F 68.0 °F 60% 29.61 in 10.0 mi West 11.5 mph 20.7 mph N/A   Mostly Cloudy
2:53 PM 82.0 °F 85.5 °F 69.1 °F 65% 29.59 in 10.0 mi West 11.5 mph 18.4 mph N/A   Mostly Cloudy
3:53 PM 84.9 °F 88.8 °F 69.1 °F 59% 29.57 in 10.0 mi West 11.5 mph - 0.00 in   Scattered Clouds
4:53 PM 82.9 °F 86.5 °F 69.1 °F 63% 29.57 in 10.0 mi SW 10.4 mph - N/A   Mostly Cloudy
5:27 PM 75.9 °F - 71.1 °F 85% 29.59 in 10.0 mi NW 10.4 mph - 0.00 in Rain Light Rain
5:53 PM 75.9 °F - 71.1 °F 85% 29.58 in 10.0 mi NW 4.6 mph - 0.00 in   Overcast
6:53 PM 75.9 °F - 71.1 °F 85% 29.60 in 10.0 mi NW 10.4 mph - N/A   Overcast
7:53 PM 75.0 °F - 70.0 °F 84% 29.60 in 10.0 mi NW 8.1 mph - N/A   Mostly Cloudy
8:53 PM 73.9 °F - 70.0 °F 87% 29.61 in 10.0 mi WNW 9.2 mph - N/A   Overcast
9:53 PM 73.0 °F - 70.0 °F 90% 29.64 in 8.0 mi West 5.8 mph - N/A Rain Light Rain
10:04 PM 73.0 °F - 71.1 °F 93% 29.64 in 4.0 mi West 4.6 mph - N/A Rain Light Rain
10:12 PM 72.0 °F - 70.0 °F 93% 29.65 in 10.0 mi WNW 5.8 mph - N/A Rain Light Rain
10:30 PM 72.0 °F - 70.0 °F 93% 29.65 in 10.0 mi NW 4.6 mph - N/A   Overcast
10:53 PM 72.0 °F - 70.0 °F 93% 29.64 in 10.0 mi West 3.5 mph - N/A   Overcast
11:41 PM 72.0 °F - 70.0 °F 93% 29.66 in 9.0 mi SW 4.6 mph - N/A Rain Light Rain
11:49 PM 71.6 °F - 69.8 °F 94% 29.66 in 8.0 mi WSW 4.6 mph - N/A Rain Light Rain
11:53 PM 72.0 °F - 70.0 °F 93% 29.65 in 5.0 mi WSW 4.6 mph - N/A Rain Rain